DateTimeUTC,F1_A11,F1_S11,BsB_S11,BsG_S11,BsR_S11,BbsB_S11,BbsG_S11,BbsR_S11,BaB_A11,BaG_A11,BaR_A11,Tu_S11,T_S11,Uu_S11,U_S11,P_S11,T1_A11
2021-02-23T14:00:00Z,00000200,21000000,,,,,,,-000.55,-000.10,0000.42,16.6,24.1,01.3,00.8,0639.3,30.9
2021-02-23T14:01:00Z,00000200,21000000,,,,,,,0000.34,0000.22,-000.20,16.6,24.1,01.3,00.8,0639.2,30.9
2021-02-23T14:02:00Z,00000200,21000000,,,,,,,0000.21,0000.27,0000.12,16.6,24.1,01.0,00.6,0639.2,30.9
2021-02-23T14:03:00Z,00000200,61000000,,,,,,,-000.14,0000.19,0000.47,16.6,24.1,01.0,00.6,0639.2,30.9
2021-02-23T14:04:00Z,00000200,41000000,0000.15,0000.35,0000.12,-000.03,0000.19,-000.05,0000.30,0000.01,-000.02,17.0,24.0,01.0,00.7,0640.0,31.0
2021-02-23T14:05:00Z,00000200,01000000,0000.84,-000.00,0000.10,0000.37,-000.07,-000.04,0000.07,0000.24,0000.01,17.1,24.0,01.2,00.8,0640.1,30.9
2021-02-23T14:06:00Z,00000200,01000000,0000.47,0000.09,-000.10,-000.15,0000.03,-000.35,-000.01,0000.02,-000.07,17.2,24.0,01.2,00.8,0640.1,30.9
2021-02-23T14:07:00Z,00000200,01000000,0000.74,0000.07,-000.37,0000.07,-000.07,-000.05,-000.37,-000.05,0000.14,17.2,24.0,01.1,00.7,0640.1,30.9
2021-02-23T14:08:00Z,00000200,01000000,0000.06,0000.23,-000.00,0000.13,-000.22,0000.08,-000.12,-000.31,-000.04,17.2,24.0,01.1,00.7,0640.2,30.9
2021-02-23T14:09:00Z,00000200,01000000,0000.42,0000.17,-000.02,0000.07,-000.10,0000.07,-000.46,-000.23,-000.36,17.2,24.0,00.8,00.5,0640.2,30.9
2021-02-23T14:10:00Z,00000200,01000000,0000.53,0000.26,0000.01,0000.09,0000.07,0000.02,-000.28,-000.55,-000.40,17.2,24.0,00.7,00.4,0640.2,31.0
2021-02-23T14:11:00Z,00000200,01000000,0000.00,0000.33,-000.25,0000.50,-000.13,0000.00,-000.19,-000.11,0000.21,17.2,24.0,00.5,00.3,0640.2,31.0
2021-02-23T14:12:00Z,00000200,01000000,-000.07,0000.15,-000.15,-000.18,0000.17,-000.05,-000.20,-000.52,0000.11,17.2,24.0,00.4,00.3,0640.2,31.0
2021-02-23T14:13:00Z,00000200,01000000,0000.81,0000.30,-000.10,-000.24,-000.10,0000.08,-000.17,0000.07,-000.46,17.3,24.0,00.2,00.2,0640.2,31.0
2021-02-23T14:14:00Z,00000200,01000000,-000.04,-000.20,-000.12,0000.03,-000.34,-000.11,-000.74,-000.04,-000.42,17.3,24.0,00.2,00.1,0640.3,31.0
2021-02-23T14:15:00Z,00000200,01000000,-000.01,0000.08,-000.02,-000.12,-000.07,0000.02,-000.55,-000.66,-000.30,17.3,24.0,00.1,00.1,0640.3,31.0
2021-02-23T14:16:00Z,00000200,01000000,0000.39,0000.26,0000.08,0000.19,0000.18,-000.08,-000.02,-000.56,-000.28,17.3,24.0,00.0,00.0,0640.3,31.0
2021-02-23T14:17:00Z,00000200,01000000,0000.51,0000.04,0000.16,-000.40,0000.03,-000.13,-000.64,-000.46,-000.16,17.3,24.0,00.0,00.0,0640.4,31.0
2021-02-23T14:18:00Z,00000200,01000000,-000.06,0000.45,-000.01,0000.51,0000.01,0000.16,-000.01,0000.06,-000.07,17.3,24.0,00.0,00.0,0640.4,31.0
2021-02-23T14:19:00Z,00000200,01000000,-000.15,-000.00,-000.08,-000.10,-000.01,-000.11,0000.17,0000.01,0000.39,17.3,24.0,,00.0,0640.4,31.0
2021-02-23T14:20:00Z,00000200,01000000,-000.26,0000.13,-000.00,-000.14,-000.01,0000.11,0000.09,0000.49,-000.01,17.3,24.0,00.0,00.0,0640.4,31.0
2021-02-23T14:21:00Z,00000200,01000000,0000.19,0000.17,-000.29,0000.12,-000.03,-000.01,0000.51,0000.11,0000.47,17.3,24.0,00.0,00.0,0640.4,31.0
2021-02-23T14:22:00Z,00000200,01000000,0000.40,0000.16,0000.05,-000.06,-000.11,0000.24,0000.29,0000.48,-000.11,17.4,24.0,00.1,00.1,0640.3,31.0
2021-02-23T14:23:00Z,00000200,01000000,-000.08,0000.15,0000.05,0000.32,-000.06,0000.13,0000.39,0000.26,0000.31,17.3,24.0,00.1,00.1,0640.3,31.0
2021-02-23T14:24:00Z,00000200,01000000,0000.01,-000.14,-000.20,0000.31,-000.00,0000.02,0000.32,0000.10,0000.21,17.3,24.0,00.3,00.2,0640.3,31.0
2021-02-23T14:25:00Z,00000200,01000000,-000.10,0000.07,-000.27,0000.17,-000.17,-000.26,-000.35,0000.38,0000.04,17.3,24.0,00.3,00.2,0640.3,31.0
2021-02-23T14:26:00Z,00000200,01000000,0000.46,0000.07,-000.01,-000.17,-000.05,0000.09,0000.47,-000.18,-000.12,17.4,24.0,00.3,00.2,0640.3,31.0
2021-02-23T14:27:00Z,00000200,01000000,0000.39,0000.01,-000.17,-000.02,-000.15,-000.01,0000.19,0000.28,0000.33,17.4,24.0,00.4,00.3,0640.3,31.0
2021-02-23T14:28:00Z,00000200,01000000,0000.32,0000.10,-000.26,0000.01,-000.03,-000.02,-000.17,-000.12,-000.45,17.4,24.0,00.6,00.4,0640.3,31.0
2021-02-23T14:29:00Z,00000200,01000000,0000.50,0000.30,0000.15,0000.03,0000.03,0000.14,0000.12,0000.33,0000.05,17.4,24.0,00.6,00.4,0640.3,31.0
2021-02-23T14:30:00Z,00000200,01000000,0000.27,0000.04,0000.01,0000.13,0000.12,0000.04,0000.24,-000.04,-000.07,17.4,24.0,00.8,00.5,0640.3,31.0
2021-02-23T14:31:00Z,00000200,01000000,0000.14,0000.03,-000.14,-000.39,-000.03,0000.07,0000.29,-000.23,0000.39,17.4,24.0,00.8,00.5,0640.3,31.0
2021-02-23T14:32:00Z,00000200,01000000,0000.38,-000.27,0000.01,-000.23,0000.17,0000.08,0000.06,0000.61,0000.36,17.4,24.0,00.9,00.6,0640.3,31.0
2021-02-23T14:33:00Z,00000200,01000000,-000.30,0000.26,-000.09,0000.11,-000.07,-000.16,0000.35,0000.15,-000.15,17.4,24.1,00.9,00.6,0640.3,31.0
2021-02-23T14:34:00Z,00000200,01000000,0000.57,0000.11,-000.14,-000.04,0000.10,0000.03,0000.01,0000.16,0000.01,17.5,24.1,01.1,00.7,0640.3,31.0
2021-02-23T14:35:00Z,00000200,01000000,-000.39,-000.03,-000.20,-000.30,0000.00,-000.04,0000.09,0000.37,0000.25,17.5,24.1,01.0,00.7,0640.3,31.0
2021-02-23T14:36:00Z,00000200,01000000,0000.33,0000.05,-000.07,-000.18,0000.02,-000.07,0000.21,-000.29,-000.07,17.5,24.1,01.0,00.7,0640.4,31.0
2021-02-23T14:37:00Z,00000200,01000000,0000.25,-000.04,-000.07,-000.40,-000.00,0000.14,-000.41,-000.18,-000.40,17.5,24.1,00.9,00.6,0640.4,31.0
2021-02-23T14:38:00Z,00000200,01000000,0000.29,-000.01,-000.14,-000.06,-000.13,-000.03,-000.27,-000.36,-000.27,17.5,24.1,00.8,00.5,0640.4,31.0
2021-02-23T14:39:00Z,00000200,01000000,0000.21,0000.39,-000.02,-000.30,-000.13,-000.02,-000.43,-000.17,0000.29,17.5,24.1,00.6,00.4,0640.4,31.0
2021-02-23T14:40:00Z,00000200,01000000,0000.02,0000.14,-000.09,-000.01,0000.10,0000.21,-000.04,0000.21,0000.13,17.6,24.1,00.7,00.5,0640.4,31.0
2021-02-23T14:41:00Z,00000200,01000000,0000.14,0000.12,-000.13,0000.13,-000.16,0000.02,0000.22,-000.18,-000.25,17.6,24.1,00.7,00.4,0640.4,31.0
2021-02-23T14:42:00Z,00000200,01000000,0000.54,0000.31,-000.16,-000.06,0000.12,0000.17,-000.25,-000.09,0000.14,17.6,24.1,00.6,00.4,0640.4,31.0
2021-02-23T14:43:00Z,00000200,01000000,0000.33,0000.39,-000.13,0000.05,0000.05,-000.02,0000.06,-000.00,-000.22,17.6,24.2,00.5,00.3,0640.5,31.0
2021-02-23T14:44:00Z,00000200,01000000,0000.28,0000.25,-000.10,-000.17,0000.06,0000.02,0000.06,0000.18,0000.00,17.6,24.2,00.5,00.4,0640.5,31.0
2021-02-23T14:45:00Z,00000200,01000000,0000.41,0000.15,-000.07,-000.25,0000.02,0000.25,-000.05,-000.00,0000.36,17.6,24.2,00.5,00.3,0640.5,31.0
2021-02-23T14:46:00Z,00000200,01000000,0000.41,-000.08,0000.05,-000.02,-000.22,0000.21,-000.18,-000.48,-000.54,17.6,24.2,00.5,00.3,0640.5,31.0
2021-02-23T14:47:00Z,00000200,01000000,-000.00,0000.33,-000.26,0000.18,-000.14,0000.23,-000.17,0000.21,-000.32,17.6,24.2,00.5,00.3,0640.5,31.0
2021-02-23T14:48:00Z,00000200,01000000,0000.37,0000.06,0000.02,0000.03,-000.03,-000.17,0000.24,-000.35,0000.33,17.6,24.2,00.5,00.4,0640.5,31.0
2021-02-23T14:49:00Z,00000200,01000000,0000.38,-000.14,0000.13,0000.06,-000.05,0000.09,0000.25,0000.59,0000.10,17.6,24.2,00.6,00.4,0640.5,31.0
2021-02-23T14:50:00Z,00000200,01000000,0000.32,-000.11,-000.02,0000.12,-000.19,-000.08,0000.03,-000.10,0000.29,17.6,24.2,00.6,00.4,0640.5,31.0
2021-02-23T14:51:00Z,00000200,01000000,0000.92,-000.13,-000.28,-000.02,0000.13,-000.30,0000.16,0000.41,0000.15,17.6,24.2,00.6,00.4,0640.5,31.0
2021-02-23T14:52:00Z,00000200,01000000,0000.58,-000.09,-000.04,0000.38,0000.08,0000.04,0000.09,-000.44,-000.34,17.7,24.2,00.6,00.4,0640.5,31.0
2021-02-23T14:53:00Z,00000200,01000000,0000.48,0000.14,-000.05,-000.07,0000.07,0000.04,-000.01,-000.08,0000.10,17.7,24.2,00.6,00.4,0640.5,31.0
2021-02-23T14:54:00Z,00000200,01000000,0000.57,0000.06,-000.18,0000.33,-000.06,0000.15,0000.04,0000.60,-000.04,17.7,24.2,00.6,00.4,0640.6,31.0
2021-02-23T14:55:00Z,00000200,01000000,0000.09,0000.28,-000.25,0000.15,0000.18,0000.01,-000.16,-000.50,0000.05,17.7,24.3,00.6,00.4,0640.6,31.0
2021-02-23T14:56:00Z,00000200,01000000,0000.05,-000.12,0000.06,0000.40,-000.01,0000.16,0000.28,0000.31,0000.12,17.7,24.2,00.6,00.4,0640.6,31.0
2021-02-23T14:57:00Z,00000200,41000000,,,,,,,-000.25,-000.17,-000.13,17.7,24.3,,00.0,0640.6,31.0
2021-02-23T14:58:00Z,00000200,61000000,,,,,,,0000.00,0000.18,0000.08,17.5,24.4,00.3,00.2,0639.7,31.0
2021-02-23T14:59:00Z,00000200,21000000,,,,,,,0000.06,0000.01,-000.01,17.5,24.5,00.3,00.2,0639.7,31.0
